Tracking 19562 objects as of 21-Mar-2019
HD Live streaming from Space Station
objects crossing your sky now

OPS 1127 (DMSP 4B F3)

Track OPS 1127 (DMSP 4B F3) now!
10-day predictions
OPS 1127 (DMSP 4B F3) is classified as:


NORAD ID: 4047
Int'l Code: 1969-062A
Perigee: 770.7 km
Apogee: 836.2 km
Inclination: 98.8 °
Period: 100.8 minutes
Semi major axis: 7174 km
RCS: 0.6649 m2 (medium)
Launch date: July 23, 1969
Source: United States (US)
Launch site: AIR FORCE WESTERN TEST RANGE (AFWTR)
aabbcc
Your satellite tracking list
Your tracking list is empty




NASA's NSSDC Master Catalog

Two Line Element Set (TLE):
1  4047U 69062A   19079.54489095  .00000011  00000-0  21846-4 0  9995
2  4047  98.7851 292.6548 0045629  92.1232 268.5175 14.28637955583949
Source of the keplerian elements: AFSPC